Location: Banff
(51.1667°N, 115.5667°W)
Time: 22:50:25
(UTC+00:00)

Vanguard 1 - All Passes

Search period start: 25 November 2020 00:00
Search period end: 05 December 2020 00:00
Orbit: 650 x 3833 km, 34.2° (Epoch: 25 November)

Date Brightness Start Highest point End Pass type
(mag) Time Alt. Az. Time Alt. Az. Time Alt. Az.
25 Nov - 13:51:11 10° SSW 13:57:47 26° SSE 14:08:01 10° ESE visible
25 Nov - 16:08:48 10° WSW 16:18:05 36° S 16:33:23 10° ESE daylight
25 Nov - 18:28:49 10° WSW 18:39:59 29° SSW 18:56:06 10° SSE daylight
25 Nov - 20:54:47 10° WSW 21:02:02 13° SW 21:10:15 10° SSW daylight
26 Nov - 11:58:17 10° SE 11:59:35 10° SE 12:00:59 10° SE visible
26 Nov - 14:11:17 10° SW 14:18:11 29° SSE 14:29:09 10° ESE visible
26 Nov - 16:29:26 10° WSW 16:38:46 34° S 16:53:56 10° SE daylight
26 Nov - 18:50:07 10° WSW 19:00:41 25° SSW 19:15:19 10° SSE daylight
27 Nov - 12:16:07 10° S 12:19:40 14° SE 12:24:08 10° ESE visible
27 Nov - 14:31:33 10° SW 14:38:39 31° SSE 14:50:08 10° ESE visible
27 Nov - 16:50:10 10° WSW 16:59:29 32° S 17:14:14 10° SE daylight
27 Nov - 19:11:51 10° WSW 19:21:22 20° SSW 19:33:51 10° S daylight
28 Nov - 12:35:26 10° S 12:39:52 18° SSE 12:45:52 10° ESE visible
28 Nov - 14:51:58 10° SW 14:59:12 31° S 15:10:59 10° ESE daylight
28 Nov - 17:11:04 10° WSW 17:20:14 28° SSW 17:34:13 10° SE daylight
28 Nov - 19:34:27 10° WSW 19:42:01 15° SW 19:51:13 10° S daylight
29 Nov - 12:55:13 10° SSW 13:00:09 21° SSE 13:07:12 10° ESE visible
29 Nov - 15:12:29 10° SW 15:19:48 30° S 15:31:39 10° SE daylight
29 Nov - 17:32:10 10° WSW 17:40:57 24° SSW 17:53:48 10° SSE daylight
29 Nov - 20:00:39 10° SW 20:02:38 10° SW 20:04:42 10° SSW daylight
30 Nov - 13:15:17 10° SSW 13:20:32 23° SSE 13:28:17 10° ESE visible
30 Nov - 15:33:08 10° WSW 15:40:28 29° S 15:52:07 10° SE daylight
30 Nov - 17:53:37 10° WSW 18:01:40 20° SSW 18:12:48 10° SSE daylight
01 Dec - 13:35:33 10° SW 13:40:59 25° SSE 13:49:12 10° ESE visible
01 Dec - 15:53:55 10° WSW 16:01:09 26° S 16:12:19 10° SE daylight
01 Dec - 18:15:43 10° WSW 18:22:23 16° SSW 18:30:54 10° S daylight
02 Dec - 11:39:56 10° S 11:42:33 13° SSE 11:45:40 10° SE visible
02 Dec - 13:55:57 10° SW 14:01:31 25° S 14:09:57 10° SE visible
02 Dec - 16:14:53 10° WSW 16:21:51 23° SSW 16:32:09 10° SSE daylight
02 Dec - 18:39:50 10° SW 18:43:05 11° SSW 18:46:42 10° SSW daylight
03 Dec - 11:59:30 10° SSW 12:02:52 16° SSE 12:07:08 10° ESE visible
03 Dec - 14:16:30 10° SW 14:22:05 24° S 14:30:31 10° SE visible
03 Dec - 16:36:09 10° WSW 16:42:34 19° SSW 16:51:30 10° SSE daylight
04 Dec - 12:19:30 10° SSW 12:23:16 18° SSE 12:28:13 10° SE visible
04 Dec - 14:37:12 10° SW 14:42:42 22° S 14:50:51 10° SE visible
04 Dec - 16:58:00 10° SW 17:03:17 15° SSW 17:10:04 10° S daylight
